Wind_Speed
31 44 54 61 69 83 91 96 107 114 121 125 130 130 131 134 133 134 140 140 136 130 118 115 118 116 119 114 106 102 99 99 100 98 92 89 94 97 95 93 89 89 86 84
31 33 45 50 60 72 85 93 101 105 112 118 124 126 127 131 133 130 133 142 144 145 142 133 127 119 115 118 114 109 103 102 105 104 101 99 96 93 96 98 94 95 94 91
34 27 33 47 62 67 76 87 96 101 104 111 118 123 129 132 137 136 138 138 139 147 149 147 142 131 115 112 115 117 112 113 113 110 106 105 101 98 95 94 94 92 91 91
31 29 35 43 53 60 65 73 85 93 100 108 113 113 121 130 140 142 139 142 142 142 146 148 148 145 142 131 117 117 122 125 121 118 115 111 108 101 101 100 103 103 101 101
33 27 31 45 46 53 58 58 74 85 89 97 100 105 111 122 127 134 136 139 133 137 140 139 143 144 148 149 140 129 123 121 120 118 119 121 117 115 108 104 106 109 107 104
35 29 33 39 44 48 50 54 65 70 78 85 90 96 103 112 118 123 130 138 136 137 135 134 133 137 142 145 148 146 143 139 129 123 119 119 120 121 122 122 122 121 117 108
44 35 31 36 42 48 48 52 56 62 68 75 79 87 91 102 112 116 121 126 130 136 139 139 139 144 146 143 143 145 149 148 147 145 142 133 126 121 116 115 113 113 113 114
51 49 43 37 35 41 50 51 52 58 64 68 72 78 83 88 96 106 110 114 121 129 133 135 137 139 141 141 140 145 145 144 146 146 146 146 145 143 141 135 132 129 123 116
56 52 49 50 39 37 39 48 55 54 59 60 65 71 77 79 89 96 101 107 107 112 120 127 130 135 141 136 137 143 142 140 141 142 142 144 145 144 142 141 137 134 133 130
57 56 52 55 49 41 38 38 45 54 59 60 60 62 67 74 78 80 89 95 100 101 104 109 115 125 132 134 136 140 139 137 137 136 137 140 142 140 139 140 139 137 135 134
61 56 55 55 51 46 43 41 43 49 50 53 54 58 60 63 70 74 76 82 89 92 95 98 103 103 109 120 126 129 135 136 135 135 133 132 135 135 137 135 135 136 134 132
60 58 56 53 48 45 44 43 45 45 47 47 45 50 55 56 59 63 68 71 76 77 79 87 95 96 98 103 110 117 123 127 129 130 131 129 130 130 132 132 133 134 134 132
60 58 56 51 46 43 42 42 42 43 42 44 44 44 49 50 55 59 61 61 65 68 72 75 80 84 89 97 103 103 106 113 118 122 123 124 128 128 127 128 129 128 128 128
62 59 56 52 43 40 41 40 38 39 38 38 40 42 44 45 50 51 53 54 57 61 68 69 70 71 79 84 90 96 99 101 105 109 113 117 125 126 126 126 123 123 125 125
62 61 56 51 44 39 39 39 37 36 35 33 35 36 38 40 43 46 48 51 54 56 62 61 62 68 76 74 77 82 87 91 95 97 100 108 115 117 121 123 121 121 121 120
62 59 55 49 44 40 36 35 36 35 32 33 33 34 34 37 40 44 46 49 50 52 53 54 58 64 63 66 69 73 79 81 82 85 92 102 103 105 109 113 113 115 116 117
61 58 54 47 43 39 36 33 32 32 30 32 32 32 31 34 37 40 42 43 43 43 46 49 53 56 56 60 64 66 71 71 72 77 83 88 91 96 98 100 103 105 108 108
60 57 53 47 42 38 36 32 31 30 28 31 32 31 32 31 35 38 39 37 37 38 41 44 48 51 51 52 56 60 63 68 71 74 73 74 80 85 88 90 93 96 99 101
61 57 53 46 43 37 35 33 31 31 28 29 31 32 31 32 32 35 37 34 34 36 39 42 42 44 47 48 49 51 55 59 61 61 64 69 71 76 79 81 84 87 89 89
61 56 51 46 41 38 35 33 31 31 28 28 30 29 26 29 31 30 33 32 26 30 35 37 38 40 41 42 44 48 50 51 52 54 59 62 64 66 70 73 74 75 79 79
61 55 51 46 40 38 34 35 32 31 30 28 31 29 27 28 28 27 29 30 27 24 26 29 32 35 36 36 39 41 42 43 46 49 53 56 57 59 61 64 65 66 67 69
60 53 50 46 40 37 33 34 34 31 31 30 30 30 27 29 29 26 28 31 27 23 21 18 20 26 30 32 33 35 37 39 41 43 46 51 53 54 55 57 59 62 61 64
58 51 49 44 40 37 33 32 35 33 32 31 29 29 30 30 29 27 27 28 28 28 19 16 16 18 23 25 28 31 33 34 35 37 41 44 47 49 52 54 56 58 59 60
56 50 47 44 40 36 34 33 34 33 32 32 31 29 29 31 30 30 29 28 26 26 25 20 18 15 18 20 24 29 32 32 33 35 38 41 43 46 47 47 48 50 50 53
54 48 45 44 41 37 35 34 33 34 34 33 33 31 29 31 31 33 33 29 27 27 25 23 20 16 14 17 21 24 27 29 30 31 33 37 40 40 40 40 42 45 49 53
52 49 44 44 42 39 37 35 34 34 35 34 34 34 33 31 33 34 35 34 30 27 27 26 21 18 16 15 17 19 21 25 27 29 29 32 35 37 39 42 46 49 52 53
51 50 44 43 43 41 39 37 35 35 35 35 35 35 35 35 34 35 36 36 35 31 30 29 27 22 22 20 18 22 23 26 27 27 29 33 35 39 43 47 51 54 56 58
Wind_Direction
267 255 247 242 238 238 239 238 237 236 237 236 236 236 237 239 238 237 237 239 240 240 242 242 244 245 246 245 249 249 249 247 248 248 252 253 254 255 257 261 264 263 264 267
281 265 260 250 241 236 237 239 239 237 237 237 235 239 239 240 241 240 238 237 236 239 239 237 240 240 241 244 245 246 248 249 250 253 254 254 256 259 258 256 260 263 263 265
299 279 265 256 246 238 235 236 237 237 239 239 237 234 236 235 239 239 240 239 238 237 237 240 242 242 243 244 245 247 248 249 247 248 250 251 253 253 255 255 256 259 261 262
314 302 276 265 256 251 242 240 242 242 238 236 237 237 237 238 237 237 237 238 237 237 236 236 240 244 245 241 242 244 247 249 249 249 248 250 252 253 251 255 257 258 260 261
316 306 288 272 265 260 256 251 242 243 244 244 240 237 239 240 242 242 243 242 242 243 240 238 239 240 244 246 244 242 244 246 248 250 251 250 250 253 253 254 255 258 259 261
310 301 286 278 275 265 257 254 252 245 243 245 244 243 239 241 242 243 241 243 243 244 244 243 243 244 243 244 244 246 245 244 244 246 248 250 252 252 254 254 257 260 260 260
313 298 281 288 282 274 267 256 251 252 251 247 246 245 240 241 242 242 241 242 243 243 243 242 240 241 244 243 243 244 246 248 249 249 248 247 248 249 251 254 256 258 259 261
319 315 309 289 280 275 275 270 260 255 253 250 248 249 244 241 243 246 246 244 243 243 243 244 244 243 244 245 245 244 245 246 248 250 251 252 253 254 254 253 255 257 258 259
320 317 314 301 291 278 267 269 272 264 259 254 253 251 248 245 244 242 244 246 247 245 245 244 243 244 245 245 245 246 246 247 248 249 251 252 252 253 255 256 256 258 260 261
319 315 315 308 300 293 284 274 269 265 264 262 260 256 253 253 250 247 248 247 246 246 247 247 245 243 245 245 245 246 248 248 249 248 248 250 252 254 254 255 257 257 258 261
317 315 315 309 304 299 293 283 272 271 268 265 262 263 260 257 255 253 251 250 251 249 247 247 248 247 246 246 246 246 247 248 249 251 251 250 251 252 254 255 256 257 258 259
316 315 314 311 306 299 294 290 286 279 274 272 268 262 261 260 259 258 256 253 254 253 251 249 249 248 246 246 245 244 245 246 247 248 250 251 252 252 253 254 254 256 258 259
315 314 313 312 305 301 294 288 283 280 278 275 271 264 263 260 259 256 257 255 255 255 253 250 250 249 248 247 247 246 245 245 245 246 247 249 251 252 252 252 253 255 256 258
313 314 315 311 306 301 293 290 286 283 279 273 269 265 261 260 260 261 261 260 257 254 252 251 249 248 247 246 246 247 246 245 245 245 245 246 248 249 250 251 252 253 254 256
313 314 316 312 306 303 299 297 294 290 281 277 271 268 264 261 260 261 259 258 256 253 254 251 249 248 249 249 246 245 246 246 245 243 243 244 245 247 249 250 251 252 253 254
312 312 313 311 306 303 298 299 297 291 289 284 275 268 263 260 257 256 255 254 255 257 257 256 252 251 251 250 249 246 246 245 245 244 243 243 243 244 246 249 250 251 252 253
311 311 310 309 304 301 297 298 295 291 289 285 279 275 266 259 258 257 256 258 257 257 257 257 257 255 252 250 249 247 245 245 244 242 242 243 244 244 244 245 249 250 251 251
309 307 307 307 302 299 295 294 295 291 284 285 278 273 267 264 261 265 266 265 266 264 261 258 257 257 254 251 250 250 248 245 243 242 242 242 242 244 244 244 246 248 251 252
306 304 304 304 300 297 292 292 295 290 285 283 275 270 267 265 263 264 267 267 268 267 264 261 259 257 259 257 254 252 250 249 249 247 245 244 243 244 244 244 246 247 250 252
301 302 302 301 298 295 290 289 292 289 283 281 272 265 263 263 264 267 272 275 271 264 265 264 262 260 258 257 255 253 252 250 248 246 244 244 243 244 245 245 246 248 250 252
298 299 299 297 295 292 287 286 287 288 281 279 272 268 263 268 269 275 279 282 279 269 266 269 264 262 262 258 256 255 253 251 249 246 244 243 242 241 242 243 244 245 248 249
297 296 296 294 292 289 285 282 284 285 281 278 271 268 263 265 268 271 281 289 293 284 277 276 275 266 260 258 257 254 251 249 247 245 244 244 243 240 239 239 239 240 243 246
293 293 292 290 288 285 283 278 279 280 279 275 270 266 260 261 268 268 277 282 296 300 293 291 281 273 265 259 254 252 249 245 241 240 241 240 240 237 237 237 237 239 241 244
289 289 287 285 283 281 279 273 275 276 277 275 273 263 259 255 261 263 268 276 285 297 307 309 317 294 268 253 247 245 239 236 234 233 232 234 235 237 237 238 239 239 241 245
283 283 281 280 278 276 274 270 270 272 273 273 271 270 262 254 253 253 259 263 275 285 292 301 312 308 282 264 258 253 247 242 239 235 233 233 231 227 229 234 236 235 236 238
278 277 275 274 274 271 270 268 266 267 268 271 268 268 263 257 250 247 249 255 262 268 271 277 285 283 282 271 254 245 242 240 239 234 229 227 225 224 224 224 228 231 229 231
273 273 271 270 270 268 267 265 264 263 263 265 265 265 263 261 256 247 244 247 250 256 257 256 264 262 252 258 248 238 236 226 228 228 227 223 220 214 214 219 223 227 231 229
Height
10350 10349 10352 10363 10374 10374 10380 10394 10397 10415 10426 10447 10460 10476 10491 10492 10507 10530 10544 10553 10570 10574 10581 10589 10589 10603 10604 10614 10625 10638 10645 10652 10656 10663 10670 10673 10677 10681 10686 10690 10694 10696 10699 10705
10339 10342 10340 10346 10350 10353 10355 10366 10370 10386 10398 10416 10435 10454 10471 10472 10480 10498 10504 10503 10519 10528 10538 10538 10544 10560 10574 10586 10601 10610 10622 10628 10631 10638 10646 10650 10654 10658 10664 10670 10674 10674 10680 10682
10330 10334 10332 10323 10319 10329 10335 10337 10340 10354 10373 10380 10391 10411 10421 10432 10437 10450 10457 10467 10478 10484 10502 10517 10525 10538 10562 10569 10577 10588 10594 10595 10603 10608 10616 10620 10627 10634 10639 10645 10648 10653 10656 10659
10326 10323 10318 10315 10310 10311 10320 10328 10328 10331 10336 10343 10356 10378 10393 10401 10386 10397 10417 10415 10427 10445 10465 10490 10504 10513 10520 10532 10549 10558 10560 10562 10572 10582 10590 10596 10600 10611 10618 10622 10624 10628 10633 10636
10316 10313 10307 10294 10297 10299 10306 10318 10308 10308 10322 10325 10339 10355 10370 10366 10378 10391 10401 10399 10427 10436 10438 10464 10478 10486 10483 10497 10520 10523 10528 10535 10545 10554 10563 10571 10576 10582 10592 10598 10603 10605 10607 10614
10306 10303 10292 10286 10282 10282 10288 10291 10288 10294 10298 10305 10315 10326 10338 10340 10348 10356 10365 10369 10389 10399 10416 10433 10453 10455 10455 10464 10478 10488 10496 10500 10509 10520 10532 10541 10548 10556 10563 10572 10576 10581 10585 10592
10289 10285 10285 10278 10274 10267 10269 10271 10273 10272 10275 10282 10292 10297 10311 10314 10311 10317 10329 10340 10354 10364 10369 10382 10394 10393 10402 10423 10441 10455 10457 10465 10476 10489 10502 10515 10521 10528 10537 10542 10551 10556 10558 10563
10280 10271 10268 10263 10263 10258 10254 10253 10256 10256 10257 10261 10266 10272 10281 10290 10295 10293 10298 10307 10315 10319 10335 10352 10363 10370 10376 10394 10412 10412 10425 10438 10447 10460 10467 10477 10487 10499 10506 10519 10522 10527 10531 10538
10270 10262 10255 10243 10247 10246 10246 10240 10235 10240 10239 10244 10247 10250 10252 10263 10265 10265 10271 10275 10285 10294 10301 10313 10329 10338 10339 10364 10379 10373 10386 10407 10419 10430 10437 10443 10454 10468 10478 10481 10493 10500 10501 10509
10261 10248 10244 10231 10228 10230 10229 10229 10223 10219 10219 10223 10229 10232 10234 10237 10239 10247 10248 10251 10255 10266 10272 10281 10292 10300 10309 10329 10338 10342 10354 10373 10382 10394 10406 10413 10418 10432 10441 10450 10456 10468 10477 10479
10247 10241 10232 10221 10216 10212 10210 10209 10207 10203 10206 10208 10210 10210 10213 10214 10216 10221 10226 10227 10230 10241 10250 10257 10258 10273 10287 10294 10301 10314 10320 10333 10347 10357 10370 10382 10388 10400 10405 10419 10425 10430 10438 10446
10239 10229 10220 10214 10207 10200 10195 10191 10188 10187 10187 10189 10192 10191 10190 10195 10195 10197 10203 10208 10209 10217 10228 10233 10233 10244 10254 10258 10260 10273 10284 10297 10310 10324 10333 10346 10352 10363 10372 10381 10390 10396 10403 10410
10225 10217 10208 10202 10195 10189 10184 10179 10175 10173 10173 10171 10172 10172 10171 10175 10173 10175 10177 10186 10190 10195 10198 10204 10209 10220 10229 10229 10230 10243 10257 10267 10276 10289 10303 10314 10312 10322 10335 10344 10356 10365 10372 10379
10209 10203 10195 10188 10183 10178 10171 10166 10162 10159 10157 10156 10155 10154 10154 10157 10157 10159 10160 10165 10169 10171 10169 10177 10185 10193 10191 10196 10204 10214 10225 10236 10247 10259 10270 10280 10277 10288 10299 10306 10319 10331 10339 10349
10195 10188 10182 10175 10170 10165 10160 10154 10149 10146 10143 10142 10140 10141 10140 10141 10142 10143 10145 10146 10146 10149 10149 10157 10163 10164 10161 10176 10187 10193 10199 10209 10219 10231 10243 10242 10245 10259 10265 10273 10287 10296 10305 10316
10185 10176 10170 10165 10159 10153 10149 10145 10139 10135 10131 10128 10127 10128 10130 10129 10128 10127 10128 10129 10131 10133 10137 10139 10141 10141 10152 10157 10163 10170 10173 10182 10195 10205 10211 10207 10221 10233 10239 10243 10255 10264 10274 10285
10173 10165 10157 10153 10148 10143 10138 10135 10131 10126 10122 10119 10117 10117 10118 10117 10116 10115 10115 10116 10119 10122 10123 10123 10123 10125 10134 10139 10142 10147 10151 10163 10170 10175 10177 10188 10201 10205 10213 10221 10227 10236 10243 10254
10159 10152 10145 10140 10137 10133 10128 10124 10121 10117 10114 10110 10108 10107 10107 10108 10105 10104 10105 10107 10108 10109 10109 10109 10109 10110 10115 10119 10125 10129 10135 10139 10144 10151 10161 10169 10175 10182 10191 10200 10206 10212 10218 10227
10144 10139 10134 10128 10124 10122 10118 10114 10112 10108 10105 10101 10100 10099 10098 10097 10097 10096 10096 10097 10097 10096 10095 10095 10097 10098 10099 10104 10108 10112 10117 10122 10130 10139 10145 10150 10155 10162 10170 10179 10187 10195 10201 10208
10129 10125 10121 10116 10112 10110 10107 10103 10101 10099 10096 10093 10091 10091 10090 10089 10088 10088 10087 10087 10087 10086 10084 10083 10085 10086 10088 10090 10094 10098 10101 10107 10114 10120 10125 10130 10138 10145 10152 10160 10169 10178 10186 10193
10113 10110 10107 10103 10101 10099 10097 10093 10090 10089 10087 10085 10083 10082 10082 10081 10081 10080 10079 10077 10077 10077 10075 10074 10074 10075 10077 10079 10081 10084 10088 10093 10098 10103 10108 10114 10121 10128 10136 10143 10153 10160 10167 10174
10098 10096 10093 10090 10088 10087 10085 10082 10080 10079 10078 10077 10075 10074 10073 10072 10073 10074 10071 10069 10068 10068 10067 10065 10065 10065 10066 10067 10069 10072 10075 10079 10083 10088 10094 10099 10106 10113 10121 10128 10136 10142 10150 10156
10082 10081 10078 10077 10076 10075 10074 10072 10069 10069 10068 10068 10067 10066 10065 10064 10065 10066 10065 10064 10063 10061 10061 10059 10058 10059 10057 10058 10059 10061 10064 10068 10071 10076 10081 10087 10093 10100 10107 10113 10121 10128 10136 10142
10065 10065 10063 10062 10063 10063 10062 10060 10058 10058 10057 10057 10058 10058 10057 10057 10058 10058 10058 10059 10059 10058 10055 10055 10054 10053 10052 10053 10052 10053 10054 10056 10059 10063 10068 10075 10081 10088 10096 10103 10111 10118 10125 10131
10048 10049 10048 10048 10048 10050 10050 10049 10047 10047 10046 10046 10046 10047 10048 10049 10050 10051 10051 10053 10054 10054 10053 10052 10051 10050 10049 10050 10050 10050 10050 10052 10054 10056 10061 10067 10072 10078 10086 10094 10100 10106 10112 10116
10031 10031 10033 10033 10034 10036 10037 10037 10036 10036 10036 10035 10035 10036 10038 10039 10041 10043 10043 10045 10047 10049 10049 10049 10050 10050 10049 10049 10048 10048 10049 10050 10052 10053 10056 10061 10066 10072 10078 10083 10089 10094 10099 10103
10014 10014 10017 10018 10020 10022 10023 10025 10024 10024 10024 10025 10025 10025 10026 10027 10029 10032 10033 10036 10039 10041 10043 10044 10044 10046 10046 10047 10048 10048 10049 10049 10050 10052 10054 10057 10061 10065 10071 10076 10080 10084 10088 10091